Preview of NWS' New Version of Forecast
This preview is not operational and should not be used for support decisions.

Regional Weather Roundup (RWR)

Issued by National Weather Service (NWS)

                            
000
ASUS44 KMEG 241100
RWRTN 
TENNESSEE HOURLY STATE WEATHER ROUNDUP
NATIONAL WEATHER SERVICE MEMPHIS TN
600 AM CDT SUN MAR 24 2019

TNZ002-004-019-021-049-052-054-088>092-241200-
WEST TENNESSEE
  
CITY           SKY/WX    TMP DP  RH WIND       PRES   REMARKS
MEMPHIS INTL   LGT RAIN  58  39  49 S9        30.13R                  
NWS MEMPHIS      N/A     57 N/A N/A MISG        N/A                   
JACKSON        MOCLDY    56  32  40 VRB3      30.12F                  
DYERSBURG      LGT RAIN  52  41  66 S5        30.13R                  
$$

TNZ008-025-027-028-033-062-065-066-241200-
NORTH MIDDLE TENNESSEE
  
CITY           SKY/WX    TMP DP  RH WIND       PRES   REMARKS
NASHVILLE      MOCLDY    44  31  60 S3        30.18S                  
CLARKSVILLE    FAIR      45  28  51 SW3       30.16R                  
SMYRNA         FAIR      41  34  76 S3        30.20S                  
CROSSVILLE     FAIR      35  21  56 CALM      30.23R                  
$$

TNZ061-075-076-078-094-096-097-241200-
SOUTH MIDDLE TENNESSEE
  
CITY           SKY/WX    TMP DP  RH WIND       PRES   REMARKS
FAYETTEVILLE   CLEAR     46  25  42 S7        30.19R                  
$$

TNZ017-018-042-046-047-241200-
NORTHEAST TENNESSEE
  
CITY           SKY/WX    TMP DP  RH WIND       PRES   REMARKS
TRI CITIES     MOCLDY    31  25  78 CALM      30.27R                  
$$

TNZ012-013-036-069-073-074-241200-
CENTRAL EAST TENNESSEE
  
CITY           SKY/WX    TMP DP  RH WIND       PRES   REMARKS
KNOXVILLE      FAIR      34  28  79 NE6       30.24S WCI  29          
OAK RIDGE      FAIR      35  28  75 CALM      30.27S                  
$$

TNZ083-085-099-241200-
SOUTHEAST TENNESSEE
  
CITY           SKY/WX    TMP DP  RH WIND       PRES   REMARKS
CHATTANOOGA    FAIR      38  33  82 CALM      30.26R                  
$$

SKY/WX REPORTED AS FAIR MEANS FEW OR NO CLOUDS BELOW
12 THOUSAND FEET.